Wind_Speed
16 16 14 13 14 15 16 17 17 18 19 21 22 21 19 19 19 17 17 17 18 19 20 21 21 22 23 23 23 23 24 24 25 26 27 26 25 24 24 24 23 23 23 24 24 24 23 23 23 22 22 23 24 25 26 27 27 26 26 26 26 26 27
18 18 17 15 15 16 17 18 19 21 23 24 25 23 20 19 19 19 18 18 19 20 21 22 23 23 23 24 24 24 25 25 25 26 26 26 25 25 24 24 23 23 22 22 23 23 23 23 23 24 24 24 25 26 27 28 28 27 27 27 27 27 27
21 21 20 19 19 18 19 20 21 22 24 25 25 24 22 19 18 18 18 18 20 21 22 23 24 24 24 24 25 25 25 25 25 26 26 26 26 25 24 23 23 22 22 22 22 23 23 23 25 25 25 25 26 27 27 28 28 27 27 27 27 27 27
23 23 22 22 22 22 22 22 23 23 25 26 27 26 24 21 17 16 17 18 20 22 23 24 25 26 26 25 26 26 26 26 26 26 26 26 25 25 24 23 22 22 22 23 23 23 23 24 25 25 25 25 26 27 27 27 27 27 27 26 26 26 26
24 24 24 23 24 24 24 24 23 23 23 24 26 25 25 22 18 15 16 18 20 22 23 24 25 26 27 27 26 26 26 26 26 26 26 25 24 23 23 22 22 22 22 22 22 23 23 23 23 23 23 24 24 25 25 26 26 26 25 24 24 24 24
24 25 25 24 24 25 25 25 23 20 19 21 23 24 23 21 18 15 16 18 19 21 23 24 26 27 27 28 28 27 27 27 26 26 25 24 23 22 21 21 21 20 19 19 20 20 20 20 20 20 20 21 21 22 22 23 23 23 23 22 22 22 22
22 23 24 24 24 25 26 26 23 20 18 19 21 21 20 18 16 15 15 17 18 20 23 24 26 27 28 28 28 28 27 26 25 24 24 23 22 20 19 19 18 18 17 17 16 16 16 16 16 16 16 16 16 17 17 18 18 19 19 19 19 19 20
21 22 22 23 22 22 22 23 23 22 19 19 20 19 18 16 14 14 15 16 17 19 22 24 26 27 27 28 27 27 26 25 24 23 22 21 20 18 17 16 16 16 15 14 14 14 13 13 13 13 13 13 13 13 13 14 14 15 15 16 16 16 16
23 23 21 20 20 19 20 20 21 21 19 18 18 18 17 16 14 14 15 16 17 18 21 22 24 25 26 26 26 26 25 24 23 22 21 20 18 17 16 15 15 14 14 13 13 12 11 11 11 10 10 10 11 11 12 12 12 12 13 13 13 13 13
24 22 19 19 19 20 21 20 18 19 19 18 18 18 18 16 15 15 15 16 17 18 19 21 22 23 24 24 24 24 24 23 23 22 21 20 18 17 16 15 14 13 13 12 11 11 10 10 10 9 9 10 10 10 11 12 12 12 12 12 12 12 12
19 17 16 17 19 20 20 19 18 19 20 20 20 20 19 17 15 15 15 15 16 17 18 20 21 22 22 23 23 24 24 24 23 22 21 20 19 17 16 15 14 13 12 11 11 10 10 10 11 11 11 11 11 11 11 12 12 12 13 13 13 12 12
15 15 15 16 18 19 19 19 18 19 21 23 24 23 20 17 15 15 15 15 15 16 17 18 20 21 22 23 24 24 25 24 23 22 21 19 18 17 16 16 15 14 13 13 12 12 12 12 12 12 12 12 12 13 13 13 13 13 13 13 14 14 14
14 14 13 14 17 18 17 18 18 18 18 22 24 23 19 16 14 14 15 16 16 17 18 19 20 21 22 23 24 24 24 24 23 22 20 19 18 17 17 16 15 15 14 14 13 13 13 13 13 13 13 13 13 13 13 14 14 14 14 14 14 14 14
12 12 12 12 14 16 16 17 17 17 15 14 15 15 15 15 15 15 17 18 19 19 20 20 21 21 22 23 23 23 23 22 22 21 20 19 19 18 17 16 15 14 14 13 14 14 15 15 16 16 16 16 15 15 15 14 14 14 14 14 14 14 15
11 12 12 11 13 15 16 16 16 17 16 13 11 11 13 14 16 17 18 20 21 21 21 21 22 22 22 22 22 22 22 22 21 21 21 21 20 19 18 17 16 15 14 14 14 14 15 16 17 18 18 18 17 17 16 16 15 14 14 14 14 15 15
12 12 13 14 14 14 15 15 14 15 15 14 13 14 15 16 17 19 20 21 21 22 22 22 23 23 23 23 23 22 21 21 21 21 21 21 21 20 19 18 17 16 15 15 15 16 16 16 17 18 19 19 19 18 18 17 17 16 16 16 16 16 17
14 13 14 15 16 16 15 14 14 13 13 13 14 16 17 18 19 20 22 22 22 22 22 23 23 23 24 24 23 23 22 22 21 21 21 21 21 21 20 20 19 18 18 18 18 18 18 18 19 19 20 20 20 20 20 19 19 18 18 18 19 19 19
16 14 13 14 16 17 16 16 16 16 16 16 16 17 19 19 20 20 22 23 24 24 23 23 23 24 24 24 23 23 23 23 22 22 22 22 21 21 21 21 21 21 21 20 20 20 20 21 22 22 22 22 22 22 21 21 21 20 20 20 20 21 22
18 16 14 14 15 17 18 18 18 18 18 18 19 20 21 21 20 20 21 23 24 25 24 24 25 25 24 24 24 24 23 23 23 23 23 23 22 22 22 23 23 23 23 22 22 22 21 22 23 25 25 25 24 24 24 23 23 22 22 22 23 23 24
19 18 17 16 16 17 18 18 19 19 19 20 20 22 23 23 23 24 25 25 26 26 25 26 27 27 26 25 25 25 24 23 23 23 23 24 24 23 23 23 23 23 23 23 24 24 23 23 24 25 27 28 28 27 27 27 26 26 26 26 26 26 27
24 22 22 21 20 20 20 21 22 23 24 25 24 24 24 23 24 25 27 29 29 28 27 28 28 28 28 27 26 25 24 24 24 24 25 25 26 25 26 25 25 25 25 25 25 25 25 25 25 26 27 29 30 30 30 30 30 30 30 30 30 31 32
30 30 30 29 27 26 26 27 28 29 30 30 29 26 25 25 26 26 27 30 31 30 28 28 27 26 27 27 26 25 24 25 26 25 25 26 26 26 26 26 27 28 29 30 30 30 29 29 29 29 29 29 31 32 33 33 34 34 35 35 36 37 38
33 35 36 35 34 33 32 32 32 33 33 33 32 30 27 26 28 27 26 29 31 29 27 28 27 27 27 28 27 25 25 26 27 26 26 27 27 27 26 26 27 29 31 33 34 35 35 34 34 33 32 32 33 34 35 36 37 38 38 38 39 40 41
36 37 38 39 39 38 37 36 35 35 34 34 34 33 31 29 29 29 28 28 29 29 28 29 29 28 27 28 28 27 28 29 30 30 29 29 30 31 30 30 31 32 33 35 36 37 38 38 38 38 38 38 38 38 39 40 40 41 41 41 42 43 45
39 40 40 41 42 42 41 40 39 37 36 36 36 35 35 33 32 32 31 30 30 30 30 30 30 30 31 32 32 32 32 34 34 32 31 31 32 34 35 35 35 34 33 35 36 38 38 39 41 41 42 43 43 44 44 45 45 46 47 47 48 49 50
42 43 43 43 44 44 43 43 43 41 39 38 38 37 37 36 36 35 34 34 33 31 30 31 34 35 36 36 35 34 34 34 33 33 33 33 33 34 35 35 33 33 33 35 36 38 38 39 40 40 41 42 43 44 45 46 47 48 50 51 52 52 53
43 43 44 44 44 44 44 44 44 44 42 41 40 39 39 38 38 38 37 37 36 34 34 36 38 39 39 38 35 33 33 33 34 35 36 36 35 34 34 33 33 33 34 35 37 38 38 39 39 40 41 41 42 43 44 45 46 47 49 50 51 53 54
41 41 42 42 43 44 44 45 45 44 43 42 42 41 41 40 40 39 39 39 38 38 36 35 35 36 38 39 38 36 36 38 38 39 39 38 37 36 34 33 33 34 35 36 37 39 40 41 41 41 42 42 43 44 44 45 46 47 48 50 51 52 53
44 43 43 43 43 43 44 45 45 45 44 43 43 42 42 42 41 41 41 40 39 39 36 34 33 35 36 38 39 39 40 40 40 40 39 38 37 35 34 33 33 34 35 36 37 39 40 41 42 42 43 43 44 44 45 46 47 48 49 50 51 52 53
48 48 46 45 44 44 44 45 46 45 44 44 44 43 43 43 44 43 43 42 40 40 40 39 39 39 38 38 38 39 39 39 39 39 38 38 37 36 35 34 34 35 35 36 37 39 40 41 42 42 43 44 45 46 46 47 48 49 50 51 52 52 53
50 49 48 46 44 43 43 43 44 44 43 43 43 43 43 44 45 45 45 44 43 43 43 43 43 43 42 41 40 39 39 39 39 39 39 39 38 37 37 37 37 37 37 38 39 40 41 42 42 43 44 45 45 46 47 48 49 50 51 52 52 53 54
49 49 49 47 44 43 42 41 41 41 40 40 41 42 42 43 44 45 46 45 45 46 46 46 44 43 43 42 42 41 41 40 40 40 40 40 40 39 39 40 40 40 40 41 42 42 42 42 43 43 44 45 46 47 48 49 50 51 51 52 52 53 53
51 50 50 49 47 46 44 43 42 42 41 41 40 41 41 42 42 43 43 44 44 44 44 44 44 43 42 42 42 42 42 42 41 41 41 41 41 42 42 43 43 43 44 45 45 44 43 43 43 44 45 46 47 48 49 49 50 50 51 51 51 51 51
54 53 53 52 51 51 48 45 43 43 42 42 42 41 41 41 41 40 41 43 44 44 43 42 42 42 42 42 41 41 42 42 42 42 43 43 43 44 44 44 44 46 48 48 46 44 44 44 45 45 46 47 48 49 49 49 49 50 50 50 50 50 50
55 55 55 55 55 55 54 51 47 44 42 41 40 39 40 40 40 40 41 43 43 43 43 42 42 42 42 42 43 42 42 42 43 44 44 44 44 44 45 46 48 50 50 48 45 44 44 44 45 45 46 46 47 47 48 48 48 48 48 48 49 49 50
56 55 55 56 56 57 57 57 56 53 50 48 45 43 40 39 40 40 41 43 44 43 43 43 44 44 44 43 43 43 44 44 44 44 45 45 45 46 48 50 52 51 48 45 44 44 44 43 43 43 43 43 43 44 45 46 46 47 47 47 47 48 48
58 57 56 56 56 57 58 58 58 57 56 55 54 51 48 46 45 45 45 46 45 44 44 45 46 47 47 46 44 44 44 44 44 45 45 46 48 51 52 52 50 47 45 44 44 43 43 43 42 42 42 42 43 44 44 45 45 45 45 46 46 46 47
Wind_Direction
273 275 279 278 268 264 265 267 270 270 271 277 286 294 291 280 272 270 270 271 268 263 261 260 258 258 258 259 259 259 258 259 261 264 267 270 271 272 272 272 271 271 271 272 273 274 274 273 275 277 277 276 276 276 276 275 275 275 274 273 272 272 272
269 271 273 274 271 269 270 272 274 277 279 282 285 287 287 279 270 266 267 269 269 265 262 260 257 256 256 256 258 259 260 261 262 265 267 269 270 270 271 272 273 274 275 274 274 275 274 272 274 278 279 277 276 275 276 277 277 278 279 278 277 276 275
271 274 276 275 273 271 271 274 276 279 281 283 284 284 283 278 268 262 262 265 266 264 261 259 257 256 255 255 257 258 260 261 262 264 266 268 269 270 271 272 273 275 275 275 274 274 273 273 275 278 279 277 276 276 277 278 279 280 280 280 279 278 277
273 276 278 279 277 273 272 273 276 279 281 282 282 282 280 276 267 261 261 262 263 262 260 258 257 256 255 254 255 257 258 260 261 262 263 264 266 267 269 270 271 272 273 273 274 274 274 275 276 277 278 277 278 278 278 279 279 279 280 280 279 278 277
272 273 276 277 276 275 274 275 279 283 283 279 276 275 273 269 263 260 261 261 260 259 259 258 257 256 255 254 255 255 256 257 258 259 260 261 262 264 266 268 270 271 272 272 273 274 275 276 278 279 279 279 278 278 278 278 278 278 278 278 277 276 275
271 272 273 274 274 274 273 274 281 285 281 272 267 265 263 259 255 256 258 259 258 258 257 257 257 256 255 255 254 254 254 254 255 257 258 258 259 260 262 265 268 271 273 275 276 277 278 279 280 280 279 278 278 278 278 278 278 278 278 277 276 274 273
271 274 274 272 272 271 271 271 274 276 274 267 263 260 257 252 250 252 255 256 257 257 257 255 254 254 253 252 252 251 251 252 253 255 256 257 257 258 259 262 265 269 272 274 275 276 277 276 276 277 278 279 280 281 282 283 284 283 283 282 280 278 276
273 278 275 270 267 266 266 267 267 268 268 264 262 261 257 252 251 252 254 255 257 258 257 255 253 251 250 249 249 249 249 250 251 252 253 254 255 256 257 258 259 261 263 265 266 267 268 270 272 275 278 281 283 284 286 288 290 291 292 291 290 288 285
280 284 279 268 262 262 264 264 265 266 263 259 263 265 260 257 256 257 257 256 257 258 259 258 255 253 251 249 248 248 248 249 249 250 250 251 251 252 253 253 254 254 255 257 258 260 263 267 270 273 277 282 285 287 288 290 294 296 297 298 299 299 296
284 286 280 268 263 264 264 265 267 266 263 262 265 266 262 258 259 262 262 261 261 261 260 260 258 256 255 253 252 251 250 250 250 250 250 250 251 251 251 251 251 251 252 254 256 259 263 266 270 273 275 279 284 288 291 294 296 299 299 300 301 302 302
290 289 282 270 261 259 260 262 266 267 266 266 265 264 260 256 257 262 263 264 265 265 264 262 260 259 258 257 256 255 254 253 252 252 252 252 253 252 253 252 251 251 252 254 257 260 264 268 273 277 279 281 284 288 291 295 297 298 300 300 300 300 299
300 295 291 274 259 256 257 257 263 271 271 267 263 259 255 252 255 261 263 265 266 266 266 266 265 263 262 260 258 256 255 254 253 253 253 253 254 254 255 254 254 255 256 258 261 263 267 272 276 280 283 285 287 289 290 291 293 294 295 296 297 297 296
298 297 297 282 263 261 261 259 267 280 281 270 259 252 248 249 254 258 262 265 266 267 268 269 269 268 267 265 262 259 256 255 254 253 253 253 254 255 256 257 259 260 262 265 269 272 275 277 280 281 283 284 284 285 286 287 288 289 290 291 290 290 290
296 295 293 281 266 264 266 266 270 279 282 273 258 247 246 251 254 256 259 263 266 269 270 270 270 269 268 267 264 261 258 256 254 253 253 253 253 254 255 256 257 260 265 271 277 282 284 284 284 283 283 283 282 282 282 282 282 283 284 285 285 284 283
290 291 284 274 268 270 275 275 274 274 273 269 259 245 241 247 252 255 259 262 266 268 270 270 268 266 263 261 259 258 257 256 255 255 255 254 254 253 253 253 255 259 265 272 277 281 283 283 283 282 281 279 279 278 277 276 275 274 274 275 277 279 280
275 278 275 271 270 271 275 280 279 271 264 260 254 246 243 247 251 254 258 263 268 271 271 270 268 264 261 258 255 254 253 254 254 255 255 255 254 253 253 254 256 259 264 269 272 275 276 278 279 279 278 276 275 273 271 271 272 271 269 269 270 271 273
264 266 268 271 272 270 272 280 281 273 263 258 254 252 253 255 255 253 252 255 261 266 269 269 266 263 260 257 255 252 250 249 249 249 250 252 253 254 255 255 255 259 263 267 270 273 275 277 277 276 275 276 275 274 272 272 272 271 270 270 270 270 270
260 263 266 270 273 271 271 276 278 276 273 270 268 266 265 264 263 258 253 251 253 256 260 262 260 259 258 257 254 252 250 248 248 247 247 247 249 252 254 254 256 260 263 266 268 272 275 277 277 275 274 274 274 275 276 275 273 272 271 271 272 273 273
256 260 265 271 274 273 271 271 272 273 274 277 279 279 276 272 268 264 260 257 255 255 255 255 253 252 254 255 254 252 251 250 250 250 250 250 249 250 252 255 259 261 264 266 267 269 273 276 277 275 273 272 272 273 273 272 270 270 269 270 271 273 275
252 256 263 270 274 274 270 267 267 270 275 280 284 285 282 278 274 271 268 264 259 256 254 252 250 249 248 249 249 248 249 249 250 251 252 253 253 253 255 258 261 263 264 267 268 268 270 273 276 277 273 270 270 271 271 271 269 268 268 269 271 274 278
254 258 266 271 272 270 267 265 266 270 275 278 281 283 283 281 279 277 275 271 265 260 255 251 250 248 245 243 241 243 244 245 246 249 252 254 255 255 257 259 261 263 264 266 268 269 269 270 272 275 273 270 268 268 271 271 270 269 269 270 272 275 279
261 263 268 271 272 270 268 267 268 269 272 275 276 277 276 276 275 275 278 277 270 263 258 254 250 245 242 240 239 241 245 248 249 252 254 255 256 257 259 262 264 265 266 268 270 271 271 270 270 271 271 269 266 265 267 268 268 269 269 270 272 274 277
266 266 267 270 272 273 271 270 269 269 269 270 272 272 269 268 268 270 276 277 272 266 259 251 246 243 241 241 240 242 247 251 253 255 257 257 258 259 260 263 267 269 270 271 273 273 273 273 273 271 270 268 266 264 263 264 265 266 268 269 271 273 274
266 265 266 268 270 272 272 271 270 269 267 266 268 269 267 264 262 262 265 268 269 268 261 249 245 248 249 250 251 252 253 254 255 256 258 259 260 260 261 264 270 272 271 271 272 273 274 275 275 274 272 271 270 268 267 266 266 267 268 269 271 272 273
265 264 263 264 266 268 269 269 269 267 266 265 265 265 265 263 261 258 259 260 260 263 263 253 246 249 252 254 256 258 258 260 259 257 259 262 264 263 264 266 270 271 271 271 272 274 275 276 275 274 273 273 272 272 271 270 270 270 271 271 272 272 273
266 264 262 262 262 264 265 265 266 265 265 263 262 262 261 260 259 257 257 258 258 258 257 250 246 249 252 253 254 256 258 259 257 256 260 265 266 264 265 267 269 271 272 272 272 273 273 274 275 274 274 274 274 274 273 273 272 272 272 273 273 274 274
267 264 263 262 262 262 263 263 263 264 263 262 261 261 260 259 258 256 254 255 257 257 255 252 253 256 257 255 256 258 257 256 255 256 261 264 264 263 264 268 272 275 275 275 275 276 276 277 277 278 278 277 277 277 276 276 275 275 275 275 276 276 276
266 264 264 264 263 263 263 263 263 263 262 261 260 261 260 259 257 256 254 253 254 256 258 258 257 256 255 255 257 260 258 257 259 261 264 264 263 262 264 268 273 276 277 278 279 279 279 280 280 280 280 279 279 279 278 278 278 278 278 277 277 277 277
264 264 265 265 264 263 263 262 262 261 260 260 259 259 258 257 256 255 254 254 254 254 254 253 251 250 251 253 255 257 257 258 260 262 263 262 261 262 264 268 273 276 279 280 280 280 281 281 282 282 282 282 282 282 281 280 280 279 278 278 278 278 278
265 265 264 263 262 263 262 261 260 259 258 258 258 257 255 254 254 254 254 255 256 254 252 251 252 253 255 255 256 256 257 258 259 259 259 258 259 261 264 268 273 279 283 284 285 285 285 285 285 285 285 285 284 284 283 282 281 281 280 280 280 279 279
265 264 262 261 261 261 260 259 259 258 257 256 256 255 255 254 253 253 254 255 254 254 254 255 256 256 256 257 257 257 257 257 257 256 256 256 257 260 263 267 274 280 284 287 289 289 288 287 287 286 286 285 284 283 282 282 281 281 280 280 280 280 279
264 262 260 259 258 257 258 259 259 259 258 257 256 256 255 255 254 254 255 255 255 254 255 257 257 255 255 255 256 257 258 258 257 256 255 255 257 260 263 268 274 279 284 289 290 290 289 287 286 286 285 284 283 282 281 280 280 279 279 279 278 278 278
263 261 260 258 255 254 256 258 259 259 259 257 256 256 255 255 255 256 256 256 257 257 258 257 256 255 254 254 254 255 257 258 258 258 258 258 260 262 265 270 275 281 286 290 291 290 288 287 285 285 284 283 282 281 280 280 280 279 279 278 278 278 277
263 261 259 258 255 254 256 258 259 259 259 257 255 254 254 255 256 256 256 256 256 258 259 259 257 255 254 254 254 255 255 256 258 259 259 260 262 265 268 272 277 283 288 290 290 288 287 286 285 284 283 282 281 280 279 279 278 278 278 277 277 277 277
262 261 259 258 256 254 255 256 256 256 256 255 254 256 259 259 257 256 255 255 256 257 258 259 258 257 256 255 255 255 255 256 257 258 259 261 264 267 270 275 280 286 289 289 288 287 286 285 285 284 282 281 280 280 279 278 278 277 277 276 276 276 277
262 260 259 258 257 256 255 256 256 255 254 253 254 257 258 257 257 256 255 256 257 258 260 261 261 260 258 257 255 254 254 255 256 258 261 264 267 270 274 279 284 287 287 287 286 285 285 284 283 282 281 281 280 280 280 279 279 277 277 276 277 278 280
262 261 259 259 258 257 256 256 257 256 256 256 257 258 256 253 253 254 254 256 259 261 262 262 261 258 258 258 257 256 256 257 260 262 265 267 271 274 278 282 284 285 285 285 284 283 282 281 280 279 280 280 280 281 281 281 280 279 279 280 281 282 284
Height
5775 5775 5775 5775 5774 5774 5774 5774 5775 5775 5775 5774 5774 5774 5774 5774 5774 5774 5774 5774 5775 5776 5777 5777 5778 5778 5778 5778 5779 5779 5780 5780 5780 5780 5780 5781 5782 5783 5783 5784 5785 5786 5786 5787 5787 5787 5788 5788 5789 5789 5790 5790 5789 5789 5789 5789 5789 5789 5788 5788 5788 5788 5788
5773 5773 5773 5773 5773 5773 5772 5772 5772 5772 5772 5772 5772 5772 5772 5772 5771 5771 5771 5772 5773 5773 5774 5775 5775 5776 5776 5776 5776 5777 5777 5778 5778 5778 5778 5779 5780 5781 5781 5782 5782 5783 5783 5784 5784 5784 5785 5786 5787 5787 5787 5787 5787 5787 5786 5786 5786 5786 5786 5786 5786 5785 5785
5771 5771 5771 5771 5771 5771 5771 5770 5770 5770 5770 5770 5769 5769 5770 5770 5769 5769 5769 5770 5770 5771 5772 5772 5773 5773 5773 5774 5774 5774 5774 5775 5775 5776 5776 5776 5777 5778 5779 5779 5780 5780 5780 5781 5781 5782 5783 5783 5784 5784 5785 5785 5784 5784 5784 5783 5783 5783 5783 5783 5782 5782 5782
5769 5770 5770 5770 5770 5769 5769 5769 5768 5768 5768 5767 5767 5767 5767 5767 5767 5766 5767 5767 5768 5768 5769 5770 5770 5771 5771 5771 5771 5772 5772 5773 5773 5773 5774 5774 5774 5775 5776 5776 5777 5777 5778 5778 5779 5779 5780 5781 5781 5781 5782 5782 5781 5781 5781 5780 5780 5780 5780 5779 5779 5779 5779
5768 5767 5768 5768 5767 5767 5767 5767 5767 5766 5766 5765 5764 5764 5764 5764 5764 5764 5764 5765 5765 5766 5766 5767 5768 5768 5769 5769 5769 5769 5770 5770 5770 5771 5771 5772 5772 5772 5773 5773 5774 5775 5775 5776 5776 5777 5777 5778 5778 5778 5778 5779 5779 5778 5778 5777 5777 5777 5777 5776 5776 5776 5775
5765 5765 5765 5765 5765 5764 5764 5765 5764 5764 5763 5762 5762 5762 5762 5762 5762 5761 5761 5762 5763 5763 5764 5765 5765 5766 5766 5766 5767 5767 5767 5768 5768 5768 5769 5769 5769 5770 5770 5771 5771 5772 5772 5773 5773 5774 5774 5775 5775 5776 5776 5776 5776 5776 5775 5775 5774 5774 5774 5773 5773 5773 5772
5762 5762 5762 5762 5762 5761 5761 5761 5762 5761 5760 5760 5760 5760 5759 5759 5759 5759 5759 5760 5760 5761 5761 5762 5763 5763 5764 5764 5764 5765 5765 5765 5766 5766 5766 5767 5767 5767 5767 5768 5768 5769 5769 5770 5770 5771 5772 5772 5773 5773 5773 5773 5773 5773 5772 5772 5772 5771 5771 5771 5770 5770 5770
5759 5759 5759 5759 5759 5759 5758 5758 5758 5759 5758 5758 5758 5758 5757 5757 5757 5757 5758 5758 5758 5759 5759 5760 5760 5761 5762 5762 5762 5763 5763 5763 5764 5764 5764 5765 5765 5765 5765 5766 5766 5767 5767 5768 5768 5769 5769 5770 5770 5770 5770 5770 5770 5770 5770 5769 5769 5769 5769 5768 5768 5767 5767
5758 5757 5757 5756 5756 5756 5755 5755 5756 5756 5756 5756 5756 5756 5755 5755 5755 5756 5756 5757 5757 5757 5758 5758 5759 5759 5760 5760 5760 5761 5761 5761 5762 5762 5762 5763 5763 5763 5763 5763 5764 5765 5765 5766 5766 5767 5767 5767 5767 5768 5768 5767 5767 5767 5767 5767 5767 5767 5766 5766 5766 5766 5765
5756 5755 5754 5754 5754 5753 5753 5753 5754 5754 5754 5754 5754 5754 5753 5753 5754 5754 5755 5755 5756 5756 5756 5757 5757 5758 5758 5758 5759 5759 5759 5759 5759 5760 5760 5760 5761 5761 5761 5761 5762 5762 5763 5763 5764 5764 5765 5765 5765 5765 5765 5765 5765 5765 5765 5765 5765 5765 5765 5764 5764 5764 5764
5753 5753 5752 5751 5751 5751 5751 5751 5752 5752 5752 5752 5752 5752 5752 5752 5752 5753 5753 5754 5754 5755 5755 5756 5756 5756 5756 5757 5757 5757 5757 5757 5758 5758 5758 5758 5758 5759 5759 5759 5760 5760 5761 5761 5762 5763 5763 5763 5764 5764 5764 5764 5764 5763 5763 5763 5763 5763 5763 5763 5763 5763 5763
5751 5750 5750 5749 5748 5749 5749 5750 5749 5750 5750 5750 5750 5750 5750 5750 5751 5751 5752 5753 5753 5754 5754 5754 5755 5755 5755 5755 5755 5755 5755 5756 5756 5756 5756 5756 5757 5757 5757 5758 5758 5759 5759 5760 5760 5761 5761 5762 5762 5762 5762 5762 5762 5762 5762 5762 5762 5762 5762 5761 5761 5761 5761
5748 5748 5747 5747 5747 5747 5747 5747 5747 5748 5748 5747 5747 5748 5748 5749 5749 5750 5750 5751 5751 5752 5752 5753 5753 5753 5754 5754 5754 5754 5754 5754 5754 5754 5755 5755 5755 5755 5756 5756 5757 5757 5758 5758 5759 5759 5759 5760 5760 5760 5760 5761 5761 5761 5760 5760 5760 5760 5760 5760 5760 5760 5759
5746 5745 5745 5745 5745 5746 5746 5745 5745 5746 5746 5745 5745 5746 5747 5747 5748 5748 5749 5749 5750 5750 5750 5751 5751 5752 5752 5752 5753 5753 5753 5753 5753 5753 5753 5753 5753 5754 5754 5754 5755 5755 5756 5756 5756 5757 5757 5757 5757 5758 5758 5758 5758 5758 5758 5758 5758 5758 5758 5758 5758 5757 5757
5744 5744 5743 5743 5743 5744 5744 5743 5743 5743 5744 5744 5744 5744 5745 5745 5746 5746 5747 5747 5748 5748 5748 5749 5749 5749 5750 5750 5751 5751 5751 5752 5752 5752 5752 5752 5752 5752 5752 5752 5753 5753 5753 5754 5754 5754 5754 5754 5755 5755 5755 5755 5755 5755 5756 5756 5756 5756 5756 5756 5755 5755 5755
5743 5742 5742 5741 5742 5742 5742 5741 5741 5741 5742 5742 5743 5743 5743 5743 5744 5744 5745 5745 5746 5746 5747 5747 5747 5747 5748 5748 5748 5749 5749 5750 5750 5750 5750 5750 5750 5750 5750 5750 5751 5751 5751 5751 5752 5752 5752 5752 5752 5752 5752 5752 5752 5753 5753 5753 5753 5753 5753 5753 5753 5753 5753
5740 5740 5740 5740 5740 5740 5740 5739 5739 5739 5739 5740 5740 5740 5741 5741 5741 5741 5742 5742 5743 5743 5744 5745 5745 5745 5745 5746 5746 5746 5747 5747 5747 5747 5748 5748 5748 5748 5748 5748 5748 5749 5749 5749 5749 5750 5750 5750 5750 5750 5750 5750 5750 5750 5750 5750 5750 5750 5750 5750 5750 5750 5750
5737 5738 5738 5738 5738 5738 5738 5738 5738 5737 5737 5737 5737 5737 5738 5738 5738 5738 5739 5739 5739 5740 5741 5742 5742 5743 5743 5744 5744 5744 5744 5744 5744 5744 5744 5745 5745 5746 5746 5746 5746 5746 5747 5747 5747 5747 5747 5748 5748 5747 5747 5747 5747 5747 5747 5747 5747 5747 5747 5747 5747 5747 5746
5734 5735 5735 5735 5735 5735 5736 5736 5736 5735 5735 5735 5734 5734 5734 5735 5735 5735 5736 5736 5737 5737 5738 5738 5739 5739 5740 5741 5742 5742 5742 5742 5742 5742 5742 5742 5742 5742 5743 5743 5744 5744 5744 5744 5744 5744 5745 5745 5745 5745 5745 5745 5744 5744 5744 5744 5744 5744 5743 5743 5743 5743 5743
5731 5732 5732 5732 5733 5733 5733 5733 5734 5733 5733 5732 5732 5731 5731 5731 5732 5732 5732 5732 5733 5733 5734 5735 5735 5736 5737 5737 5738 5739 5739 5739 5739 5739 5739 5739 5739 5739 5740 5740 5740 5740 5740 5740 5740 5741 5742 5742 5742 5742 5742 5742 5741 5741 5741 5741 5741 5740 5740 5740 5740 5740 5739
5728 5728 5728 5729 5729 5730 5730 5730 5731 5731 5730 5730 5729 5729 5728 5728 5728 5728 5728 5728 5728 5729 5730 5731 5731 5732 5733 5733 5734 5735 5735 5735 5735 5735 5735 5735 5736 5736 5737 5737 5737 5737 5737 5737 5737 5738 5738 5738 5739 5739 5738 5738 5738 5738 5738 5737 5737 5737 5736 5736 5736 5736 5735
5724 5724 5725 5725 5725 5726 5726 5727 5727 5727 5727 5726 5726 5726 5726 5726 5726 5725 5725 5724 5724 5725 5726 5727 5728 5729 5729 5730 5730 5731 5731 5731 5731 5731 5732 5732 5732 5733 5733 5734 5734 5734 5734 5734 5734 5735 5735 5735 5735 5735 5735 5735 5735 5734 5734 5733 5733 5732 5732 5732 5732 5732 5731
5720 5720 5720 5720 5720 5721 5721 5722 5722 5722 5722 5722 5722 5722 5723 5723 5723 5722 5722 5721 5721 5721 5722 5723 5724 5725 5725 5726 5726 5727 5727 5727 5728 5728 5728 5728 5729 5730 5730 5730 5731 5730 5730 5730 5730 5730 5730 5730 5731 5731 5731 5731 5731 5730 5730 5729 5728 5728 5728 5728 5727 5727 5726
5714 5714 5715 5715 5715 5715 5716 5716 5717 5717 5717 5717 5717 5718 5718 5719 5719 5719 5719 5718 5718 5718 5718 5720 5721 5722 5722 5722 5722 5723 5723 5724 5724 5724 5724 5725 5725 5725 5726 5726 5727 5727 5727 5727 5726 5725 5725 5725 5725 5726 5726 5726 5726 5725 5725 5724 5724 5723 5723 5722 5722 5721 5720
5708 5708 5709 5709 5709 5710 5710 5710 5711 5711 5712 5712 5712 5713 5713 5713 5714 5714 5714 5715 5715 5714 5715 5717 5718 5718 5717 5717 5718 5719 5719 5719 5720 5720 5721 5721 5721 5721 5721 5722 5722 5722 5722 5722 5721 5720 5720 5720 5720 5720 5720 5720 5720 5719 5719 5719 5718 5717 5717 5716 5716 5715 5714
5702 5702 5702 5703 5703 5704 5704 5704 5705 5705 5706 5706 5707 5707 5707 5708 5708 5709 5709 5710 5710 5711 5711 5712 5713 5712 5712 5712 5713 5713 5714 5714 5715 5716 5716 5717 5716 5716 5716 5717 5717 5717 5717 5717 5716 5716 5715 5714 5714 5714 5714 5713 5713 5713 5712 5712 5711 5711 5710 5709 5708 5708 5707
5695 5695 5696 5696 5697 5697 5698 5698 5698 5699 5700 5701 5701 5701 5702 5702 5702 5703 5704 5705 5706 5706 5707 5707 5707 5707 5708 5708 5708 5709 5709 5709 5710 5711 5712 5712 5712 5712 5712 5712 5712 5711 5711 5711 5711 5710 5709 5709 5708 5708 5707 5707 5706 5706 5705 5705 5704 5703 5702 5701 5700 5700 5699
5688 5688 5689 5689 5690 5690 5691 5691 5691 5692 5693 5694 5695 5695 5695 5696 5697 5697 5698 5699 5700 5701 5701 5701 5702 5703 5703 5704 5704 5704 5705 5705 5705 5706 5706 5707 5707 5707 5707 5707 5706 5706 5706 5705 5705 5704 5704 5703 5702 5702 5701 5700 5700 5699 5698 5697 5697 5696 5695 5694 5693 5692 5691
5681 5681 5681 5682 5682 5683 5684 5684 5684 5685 5686 5687 5688 5689 5689 5690 5691 5692 5692 5693 5695 5695 5696 5696 5696 5697 5698 5698 5699 5699 5699 5700 5700 5700 5701 5701 5701 5702 5702 5702 5701 5701 5701 5701 5700 5699 5699 5697 5696 5695 5694 5694 5693 5692 5691 5690 5689 5688 5687 5686 5686 5685 5684
5674 5674 5674 5674 5675 5675 5676 5676 5677 5677 5678 5680 5681 5682 5683 5684 5685 5686 5686 5688 5689 5690 5690 5690 5690 5691 5692 5693 5694 5694 5694 5694 5695 5695 5695 5696 5696 5696 5696 5696 5696 5696 5696 5696 5695 5694 5693 5692 5690 5689 5688 5687 5686 5685 5685 5683 5682 5681 5680 5679 5679 5678 5677
5667 5667 5667 5667 5668 5668 5668 5669 5670 5670 5672 5673 5674 5675 5676 5677 5678 5679 5680 5681 5683 5684 5683 5683 5684 5685 5687 5688 5688 5688 5689 5689 5689 5689 5690 5690 5690 5690 5690 5690 5690 5690 5690 5690 5689 5688 5687 5686 5684 5683 5682 5681 5680 5679 5678 5677 5676 5675 5674 5673 5672 5671 5670
5660 5660 5660 5661 5661 5662 5662 5663 5663 5664 5665 5666 5667 5668 5669 5670 5671 5672 5674 5675 5676 5677 5677 5677 5678 5679 5680 5681 5682 5682 5683 5683 5684 5684 5684 5685 5685 5685 5685 5685 5685 5685 5684 5684 5683 5682 5681 5680 5679 5677 5676 5675 5674 5673 5672 5671 5670 5669 5668 5667 5666 5664 5663
5652 5653 5653 5654 5655 5656 5656 5657 5657 5658 5659 5660 5661 5662 5663 5664 5665 5666 5667 5668 5669 5670 5670 5671 5672 5673 5674 5674 5675 5676 5677 5677 5678 5678 5678 5679 5679 5679 5679 5679 5679 5678 5678 5677 5676 5675 5675 5674 5672 5671 5670 5669 5668 5667 5666 5665 5663 5662 5661 5660 5659 5657 5656
5644 5644 5645 5647 5648 5649 5650 5650 5651 5652 5652 5653 5654 5655 5656 5657 5659 5660 5661 5662 5662 5663 5664 5665 5665 5666 5667 5668 5668 5669 5670 5671 5672 5672 5672 5672 5672 5672 5672 5672 5672 5672 5671 5670 5669 5668 5668 5667 5666 5665 5663 5662 5661 5660 5659 5658 5657 5656 5655 5653 5652 5650 5649
5635 5636 5637 5638 5640 5642 5643 5644 5645 5645 5646 5646 5647 5648 5649 5651 5653 5654 5655 5655 5656 5657 5657 5658 5659 5660 5661 5661 5662 5663 5663 5664 5665 5666 5666 5666 5666 5666 5666 5666 5666 5665 5664 5663 5662 5661 5661 5660 5659 5658 5657 5655 5655 5654 5653 5652 5650 5649 5648 5646 5645 5643 5641
5626 5628 5628 5629 5631 5633 5635 5636 5637 5638 5639 5640 5640 5642 5643 5645 5646 5647 5648 5648 5648 5650 5651 5652 5653 5654 5655 5655 5656 5656 5657 5658 5659 5660 5660 5660 5660 5660 5660 5660 5659 5658 5657 5657 5656 5655 5654 5653 5652 5651 5650 5649 5648 5647 5646 5644 5643 5642 5640 5639 5637 5636 5634
5617 5618 5619 5620 5622 5623 5625 5627 5628 5630 5631 5632 5633 5635 5636 5638 5639 5640 5640 5641 5642 5643 5644 5645 5646 5647 5648 5648 5649 5650 5651 5652 5653 5653 5654 5654 5654 5654 5654 5653 5652 5651 5651 5650 5649 5648 5647 5646 5645 5644 5643 5642 5641 5640 5639 5637 5636 5634 5633 5632 5631 5629 5627